Lake of the Ozarks Weather Center

Moon Phase Calendar



Lake of the Ozarks Water Level
Online Cameras

 


      

Current Conditions in Four Seasons
2/25/2024 7:37:11 PM

60°F
Feels Like 58
Clear
Humidity
48%
Pressure
29.8"
Wind
5.3 mph (WSW)
Dew Point
40°F
UV Index
0/10 (Low)
Visibility
6 mi

Hourly Forecast

Date & Time Sun, Feb 25
7:00 PM
Sun, Feb 25
8:00 PM
Sun, Feb 25
9:00 PM
Sun, Feb 25
10:00 PM
Sun, Feb 25
11:00 PM
Mon, Feb 26
12:00 AM
Mon, Feb 26
1:00 AM
Mon, Feb 26
2:00 AM
Mon, Feb 26
3:00 AM
Mon, Feb 26
4:00 AM
Mon, Feb 26
5:00 AM
Mon, Feb 26
6:00 AM
Mon, Feb 26
7:00 AM
Mon, Feb 26
8:00 AM
Mon, Feb 26
9:00 AM
Mon, Feb 26
10:00 AM
Mon, Feb 26
11:00 AM
Mon, Feb 26
12:00 PM
Mon, Feb 26
1:00 PM
Mon, Feb 26
2:00 PM
Mon, Feb 26
3:00 PM
Mon, Feb 26
4:00 PM
Mon, Feb 26
5:00 PM
Mon, Feb 26
6:00 PM
Mon, Feb 26
7:00 PM
Mon, Feb 26
8:00 PM
Mon, Feb 26
9:00 PM
Mon, Feb 26
10:00 PM
Mon, Feb 26
11:00 PM
Tue, Feb 27
12:00 AM
Tue, Feb 27
1:00 AM
Tue, Feb 27
2:00 AM
Tue, Feb 27
3:00 AM
Tue, Feb 27
4:00 AM
Tue, Feb 27
5:00 AM
Tue, Feb 27
6:00 AM
Tue, Feb 27
7:00 AM
Tue, Feb 27
8:00 AM
Tue, Feb 27
9:00 AM
Tue, Feb 27
10:00 AM
Tue, Feb 27
11:00 AM
Tue, Feb 27
12:00 PM
Tue, Feb 27
1:00 PM
Tue, Feb 27
2:00 PM
Tue, Feb 27
3:00 PM
Tue, Feb 27
4:00 PM
Tue, Feb 27
5:00 PM
Tue, Feb 27
6:00 PM
Condition
Clear

Clear

Clear

Clear

Clear

Clear

Clear

Clear

Clear

Clouds

Clouds

Clouds

Clouds

Clouds

Clouds

Clouds

Clouds

Clouds

Clouds

Clouds

Clouds

Clouds

Clouds

Clouds

Clouds

Clouds

Clouds

Clouds

Clouds

Clouds

Clouds

Clouds

Clouds

Clouds

Clouds

Clouds

Clouds

Clouds

Clouds

Clouds

Clouds

Clouds

Clouds

Clouds

Clouds

Clouds

Clouds

Clouds
Temperature 59°F60°F59°F57°F55°F53°F51°F51°F50°F50°F50°F49°F49°F52°F58°F64°F68°F71°F73°F74°F74°F72°F68°F64°F62°F60°F58°F58°F57°F57°F56°F57°F57°F57°F57°F58°F59°F62°F66°F70°F74°F75°F77°F78°F77°F76°F74°F71°F
Feels Like 57°F58°F57°F55°F53°F51°F49°F48°F48°F48°F48°F48°F47°F51°F57°F62°F67°F70°F72°F73°F73°F71°F67°F63°F61°F59°F57°F57°F56°F55°F55°F55°F56°F56°F56°F57°F58°F61°F65°F69°F73°F75°F77°F77°F76°F75°F73°F70°F
Cloudiness 0%0%0%0%0%0%0%0%1%25%22%26%100%100%100%100%100%100%100%100%100%100%100%100%100%100%100%100%100%100%100%100%100%100%100%100%100%100%100%100%99%99%100%100%98%99%99%94%
Visibility 6 mi6 mi6 mi6 mi6 mi6 mi6 mi6 mi6 mi6 mi6 mi6 mi6 mi6 mi6 mi6 mi6 mi6 mi6 mi6 mi6 mi6 mi6 mi6 mi6 mi6 mi6 mi6 mi6 mi6 mi6 mi6 mi6 mi6 mi6 mi6 mi6 mi6 mi6 mi6 mi6 mi6 mi6 mi6 mi6 mi6 mi6 mi6 mi
Precipitation 0%0%0%0%0%0%0%0%0%0%0%0%0%0%0%0%0%0%0%0%0%0%0%0%0%0%0%0%0%0%0%0%0%0%0%0%0%0%0%0%0%0%0%0%0%0%0%0%
Humidity 50%48%51%53%55%56%58%61%66%75%80%82%81%75%64%55%47%42%37%35%38%42%50%59%66%71%75%72%71%71%72%71%70%70%72%71%70%64%58%53%47%44%39%37%38%39%40%40%
Dew Point 41°F40°F41°F40°F39°F38°F36°F37°F39°F42°F43°F43°F43°F44°F46°F47°F47°F47°F45°F45°F47°F48°F49°F49°F50°F50°F49°F48°F47°F47°F47°F47°F47°F47°F47°F48°F48°F49°F50°F52°F52°F52°F51°F49°F49°F49°F48°F45°F
Pressure 29.8"29.8"29.8"29.83"29.83"29.85"29.85"29.85"29.83"29.83"29.8"29.8"29.8"29.8"29.8"29.77"29.74"29.71"29.68"29.65"29.62"29.59"29.59"29.59"29.59"29.59"29.56"29.59"29.56"29.53"29.53"29.53"29.5"29.47"29.47"29.47"29.44"29.47"29.44"29.41"29.41"29.41"29.35"29.35"29.35"29.35"29.35"29.35"
Wind Speed 5 mph5.3 mph5.5 mph5.2 mph4.9 mph4.8 mph5 mph4.8 mph4.8 mph4.8 mph4.6 mph4.5 mph4.8 mph4.1 mph5.7 mph8.5 mph10.6 mph11.3 mph11.4 mph11.1 mph10.3 mph9.3 mph8 mph7.6 mph7.3 mph6.6 mph5.9 mph5.5 mph5.1 mph4.8 mph4.8 mph3.9 mph4.5 mph4.1 mph4 mph6.9 mph6.2 mph9.4 mph11.4 mph12.5 mph14.2 mph15.9 mph15.9 mph16.6 mph15.7 mph16.7 mph15.2 mph13.2 mph
Wind
Direction
230°
SW
248°
WSW
259°
W
253°
WSW
243°
WSW
231°
SW
218°
SW
220°
SW
211°
SSW
208°
SSW
202°
SSW
195°
SSW
190°
S
177°
S
183°
S
191°
S
188°
S
188°
S
193°
SSW
205°
SSW
213°
SSW
211°
SSW
217°
SW
209°
SSW
203°
SSW
198°
SSW
192°
SSW
203°
SSW
199°
SSW
204°
SSW
200°
SSW
210°
SSW
212°
SSW
185°
S
192°
SSW
214°
SW
210°
SSW
216°
SW
225°
SW
223°
SW
226°
SW
228°
SW
230°
SW
247°
WSW
243°
WSW
231°
SW
231°
SW
237°
WSW

Daily Forecast

Date High Low Precip. Humidity
Today
Feb 25

Clear
72 °F
46 °F
0%
38%
Monday
Feb 26

Clouds
74 °F
49 °F
0%
42%
Tuesday
Feb 27

Clouds
78 °F
41 °F
0%
44%
Wednesday
Feb 28

Snow
41 °F
25 °F
46%
35%
Thursday
Feb 29

Rain
49 °F
30 °F
29%
33%
Friday
Mar 1

Rain
62 °F
38 °F
84%
60%
Saturday
Mar 2

Clear
73 °F
45 °F
0%
51%
Sunday
Mar 3

Clouds
75 °F
57 °F
21%
47%
Monday
Mar 4

Rain
61 °F
38 °F
100%
87%
Tuesday
Mar 5

Clear
56 °F
34 °F
0%
44%
Wednesday
Mar 6

Rain
54 °F
40 °F
30%
38%
Thursday
Mar 7

Rain
48 °F
42 °F
100%
91%
Friday
Mar 8

Rain
64 °F
45 °F
49%
44%
Saturday
Mar 9

Clouds
56 °F
39 °F
0%
49%
Sunday
Mar 10

Clouds
67 °F
40 °F
0%
41%
Monday
Mar 11

Clouds
75 °F
52 °F
0%
35%

Temperature 8-14 Day Outlook



Precipitation 8-14 Day Outlook






About Us
Contact Us
Site Map
Search Site
Advertise With Us
   
Ozarks.USLakes.info
THE LAKE OF THE OZARKS WEBSITE

Copyright 2024, Lakes Online
Privacy    |    Legal